Temperature
21 20 19 18 18 17 16 15 15 14 13 12 12 12 11 11 11 11 11 11 10 10 10 9 9 9 9 9 9 8 8 8 8 8 8 9 8 8 7 7 7 7 6
21 20 19 18 17 17 16 15 15 14 13 13 12 12 12 11 11 11 11 11 10 10 10 10 9 9 9 9 9 9 8 8 8 7 7 7 8 7 7 7 7 6 6
20 20 19 18 17 16 16 16 15 14 13 13 12 12 11 11 11 11 11 10 10 10 10 10 9 9 9 9 9 8 8 8 7 7 6 6 6 6 7 6 6 6 5
20 19 18 17 17 16 16 15 15 14 13 12 12 12 11 11 11 11 11 10 10 10 10 10 10 9 9 9 9 8 8 8 7 7 6 6 5 5 5 6 6 5 5
19 19 18 17 16 16 15 15 14 14 13 12 12 12 11 11 11 11 11 10 10 10 10 10 10 9 9 9 9 8 8 8 7 7 6 6 5 5 4 4 5 5 5
19 18 17 17 16 15 15 14 14 14 13 12 12 11 11 11 11 10 10 10 10 10 10 10 10 9 9 9 9 8 8 8 7 7 6 6 5 5 4 3 4 5 5
18 17 16 16 15 15 14 14 14 13 13 12 12 11 11 11 11 11 10 10 10 10 10 10 10 9 9 9 9 8 8 7 7 7 6 6 5 5 4 3 3 3 4
17 16 16 15 15 14 14 14 14 13 13 12 12 11 11 11 10 10 10 10 10 10 10 10 10 9 9 9 8 8 8 7 7 6 6 6 5 5 4 3 3 2 2
17 16 15 14 14 14 14 14 14 13 13 12 12 11 11 11 10 10 10 10 10 10 10 10 9 9 9 9 8 8 7 7 7 6 6 5 5 4 4 3 2 1 1
16 16 15 14 14 13 13 13 13 13 13 12 12 11 11 11 10 10 10 10 10 10 10 10 9 9 9 8 8 8 7 7 6 6 6 5 5 4 4 3 2 2 1
16 16 15 14 14 13 13 13 13 12 12 12 12 11 11 11 10 10 10 10 10 10 10 10 9 9 9 8 8 7 7 6 6 6 5 5 4 4 3 3 2 1 1
16 16 15 14 14 13 13 13 12 12 12 12 12 11 11 11 10 10 10 10 10 10 10 9 9 9 8 8 8 7 7 6 6 5 5 4 4 3 3 2 2 1 1
16 16 15 14 14 13 13 12 12 12 12 12 11 11 11 11 10 10 10 10 10 10 9 9 9 9 8 8 7 7 6 6 5 5 4 4 3 3 3 2 1 1 0
16 16 15 15 14 13 13 12 12 12 12 11 11 11 11 10 10 10 10 10 10 9 9 9 9 8 8 7 7 6 6 5 5 5 4 4 3 3 2 2 1 1 0
16 16 15 15 14 13 13 12 12 12 11 11 11 11 10 10 10 10 9 9 9 9 9 8 8 8 7 7 6 6 5 5 5 4 4 3 3 2 2 1 1 0 -0
16 16 15 15 14 14 13 12 12 11 11 11 11 10 10 10 9 9 9 9 9 9 8 8 8 7 7 7 6 5 5 4 4 4 3 3 2 2 1 1 0 -0 -1
16 16 15 15 15 14 13 13 12 11 11 10 10 10 9 9 9 9 9 9 8 8 8 7 7 7 6 6 5 5 4 4 3 3 3 2 2 1 1 0 -0 -1 -1
16 16 15 15 14 14 13 12 12 11 10 10 10 9 9 9 9 8 8 8 8 7 7 7 6 6 6 5 5 4 3 3 3 2 2 1 1 1 0 -1 -1 -1 -1
16 15 15 14 14 13 13 12 11 10 10 9 9 9 8 8 8 8 8 7 7 7 6 6 6 5 5 4 4 3 2 2 2 2 1 1 0 -0 -1 -1 -2 -2 -2
15 15 14 14 13 13 12 11 11 10 10 9 9 8 8 8 7 7 7 7 6 6 6 5 5 4 4 4 3 2 2 1 1 1 1 0 -0 -1 -1 -2 -2 -3 -3
14 14 13 13 12 12 11 11 10 10 9 9 8 8 7 7 7 6 6 6 5 5 5 4 4 4 3 3 2 2 1 1 0 0 -0 -1 -1 -2 -2 -3 -3 -3 -4
13 13 13 12 12 11 11 10 9 9 9 8 8 7 7 6 6 6 5 5 5 4 4 4 3 3 2 2 1 1 0 -0 -1 -1 -1 -2 -2 -3 -3 -4 -4 -4 -4
12 12 12 11 11 10 10 10 9 9 8 8 7 7 6 6 5 5 5 4 4 3 3 3 2 2 2 1 1 -0 -1 -1 -1 -2 -2 -3 -3 -3 -4 -4 -4 -5 -5
12 11 11 10 10 10 9 9 8 8 8 7 7 6 6 5 5 4 4 3 3 3 2 2 2 1 1 1 -0 -1 -1 -2 -2 -2 -3 -3 -4 -4 -4 -5 -5 -5 -5
11 11 10 10 9 9 8 8 8 7 7 7 6 6 5 5 4 4 3 3 2 2 1 1 1 0 0 -0 -1 -2 -2 -2 -3 -3 -4 -4 -4 -5 -5 -5 -5 -6 -6
10 10 10 9 9 8 8 7 7 7 6 6 5 5 4 4 3 3 2 2 2 1 1 0 -0 -0 -1 -1 -2 -2 -3 -3 -4 -4 -5 -5 -5 -5 -6 -6 -6 -6 -7
Wind_Speed
9 10 10 10 10 11 12 14 14 13 12 11 10 9 8 7 6 7 12 13 12 12 9 5 5 4 3 3 2 1 1 1 1 2 4 5 5 2 1 0 1 1 2
7 9 10 10 11 11 11 12 14 14 13 11 10 8 7 6 6 6 9 12 12 12 9 6 4 4 3 2 2 1 1 1 1 1 2 4 5 3 2 1 1 2 3
7 8 11 11 10 11 12 11 13 13 13 11 9 7 6 5 4 6 6 8 12 11 10 8 6 5 4 3 3 2 2 0 1 1 1 0 3 4 4 3 2 2 2
6 7 10 11 11 10 10 10 12 12 12 12 12 12 9 7 7 7 6 7 10 11 11 9 7 5 4 4 3 3 2 2 1 1 1 2 2 1 4 4 3 4 4
5 7 9 10 10 9 9 9 10 11 11 12 13 12 9 7 6 8 9 8 6 9 10 9 7 6 4 4 4 3 2 2 2 1 1 1 1 2 3 5 5 4 4
5 5 7 9 9 8 8 8 10 10 11 12 12 12 11 10 10 10 9 8 6 6 8 9 7 6 5 5 4 3 3 2 2 2 2 2 2 2 3 5 6 6 5
5 6 8 10 10 10 10 9 11 11 11 12 12 12 12 12 12 11 10 9 7 5 8 6 6 5 6 6 5 4 3 3 3 3 3 3 3 3 3 4 5 5 5
6 7 8 9 10 11 11 11 11 11 12 12 12 11 11 9 8 10 9 9 7 7 9 8 7 7 8 7 6 4 4 4 4 4 4 3 3 3 3 3 3 5 5
6 7 8 9 10 11 11 11 12 11 12 12 11 10 11 10 9 10 8 7 7 7 9 8 8 7 7 7 6 4 5 5 5 5 5 4 4 4 4 4 4 4 5
7 8 8 9 10 11 10 11 11 11 11 11 10 9 9 9 10 9 10 9 9 9 10 9 8 8 7 7 6 5 5 5 5 4 5 5 4 4 4 4 5 5 6
7 7 7 8 9 10 11 11 11 10 10 11 10 9 9 9 9 9 10 9 9 10 11 10 9 8 8 7 6 6 6 6 6 5 6 7 6 5 5 5 5 6 6
7 7 7 8 9 10 10 11 11 11 11 10 10 9 9 9 10 9 9 10 10 10 10 9 9 9 8 8 8 7 7 7 7 7 6 7 6 6 6 5 7 7 7
7 7 7 8 9 9 9 10 10 10 10 10 10 10 10 10 10 10 9 10 10 9 9 9 9 9 8 8 8 7 7 7 7 7 7 7 7 8 7 7 7 7 8
8 7 7 8 8 9 9 9 9 9 10 10 10 10 10 10 10 9 9 9 10 10 9 9 8 8 8 8 7 7 7 6 7 7 7 8 8 9 9 8 8 7 7
7 8 8 8 8 8 9 9 9 9 9 10 10 9 9 8 8 9 9 9 9 9 8 8 8 7 7 8 8 8 7 7 7 7 8 9 11 14 12 10 8 7 7
7 7 8 8 8 9 9 9 9 9 9 9 9 8 8 8 8 8 8 8 8 8 8 8 8 8 8 11 13 10 7 7 8 8 8 9 11 14 18 20 18 14 10
7 8 8 7 7 8 8 9 8 8 9 8 8 8 8 8 8 8 8 8 8 7 8 8 8 8 9 12 13 13 8 7 8 8 8 9 9 13 9 14 18 17 20
6 6 6 6 6 6 7 7 7 8 8 8 8 8 8 8 7 8 8 7 6 7 7 8 8 7 8 12 13 13 9 7 8 9 9 9 9 9 10 9 9 10 11
5 5 5 5 6 6 7 8 8 8 8 7 7 7 8 8 8 8 7 6 6 6 6 7 7 7 8 11 12 11 6 7 9 9 9 10 10 16 17 11 10 10 10
5 5 5 6 6 6 8 8 8 8 7 7 7 7 7 7 7 7 6 5 5 5 5 6 7 7 7 10 12 12 6 7 8 8 9 13 14 17 18 11 9 11 11
7 7 7 6 6 6 8 7 7 6 6 6 6 6 6 6 6 5 4 4 4 4 5 5 5 6 7 8 11 12 7 7 7 7 7 8 16 19 19 17 11 16 16
7 7 7 6 5 7 8 7 6 6 6 6 6 5 5 5 4 5 4 4 4 4 4 4 5 4 5 7 10 13 13 11 8 8 7 8 16 18 20 16 17 22 19
7 7 8 7 6 6 7 7 5 6 6 6 5 5 4 4 4 4 4 4 4 4 4 4 4 4 4 5 11 14 15 15 10 8 14 16 19 19 15 18 21 18 9
7 7 8 7 6 5 6 6 6 6 6 5 4 4 4 3 3 3 3 3 4 4 4 4 5 5 4 4 5 6 8 11 11 9 13 18 19 16 15 16 13 8 7
6 7 7 7 6 6 6 6 6 6 6 5 4 4 3 3 2 2 3 4 4 5 5 5 5 5 6 8 11 8 6 6 8 8 7 6 7 7 7 7 7 6 6
7 7 7 7 6 6 6 6 5 5 5 4 3 3 2 2 2 2 2 4 5 7 9 9 9 8 11 14 14 15 16 17 17 12 8 8 8 8 8 7 7 6 6
Wind_Direction
210 187 178 172 172 175 175 175 175 179 176 177 177 178 182 176 172 170 174 176 179 179 177 167 163 160 175 192 202 181 327 308 0 349 316 300 278 232 170 318 354 339 309
215 186 175 173 177 180 180 176 176 179 180 178 176 175 171 169 166 159 169 175 176 176 174 167 168 168 171 185 176 133 111 315 56 64 343 335 338 356 347 333 288 302 319
212 187 177 177 176 182 182 183 178 177 177 169 162 156 146 143 153 163 169 173 172 170 167 171 166 163 166 170 161 147 145 207 319 113 127 17 299 321 312 302 301 313 318
201 187 177 176 178 179 174 177 172 173 174 167 167 167 170 172 175 168 169 171 169 165 167 169 161 157 154 157 162 151 155 153 222 287 182 201 204 272 309 313 319 333 318
190 186 178 173 169 162 162 168 166 171 172 170 171 174 175 173 160 160 164 169 166 162 164 165 160 159 157 157 151 151 167 166 181 191 216 270 280 224 235 284 300 309 292
174 177 165 157 153 147 152 161 166 172 173 174 177 182 178 170 164 166 169 170 166 164 165 166 162 161 157 157 158 164 172 180 189 197 197 201 221 240 241 263 289 294 288
167 175 163 159 156 155 162 170 172 176 177 180 186 187 181 175 173 170 171 170 168 169 174 166 167 164 160 160 159 164 181 189 195 207 221 221 225 229 239 260 280 290 295
168 174 169 165 163 164 169 177 180 180 181 184 189 188 181 178 174 171 170 174 173 173 167 165 167 165 163 164 164 169 188 191 201 217 223 228 236 232 231 235 263 294 295
167 171 170 168 167 170 176 181 182 182 183 184 186 186 180 175 170 168 167 169 164 163 161 165 167 166 166 168 169 182 194 196 205 214 221 226 234 233 233 228 215 231 277
167 173 176 175 172 171 175 180 184 184 181 182 186 185 178 172 167 167 167 165 161 159 162 168 170 170 172 175 176 186 198 199 210 209 217 230 233 234 231 227 227 219 234
169 174 177 174 170 168 173 181 185 182 181 183 183 179 177 170 165 165 166 164 161 161 167 171 172 174 178 180 185 195 198 205 215 218 221 231 231 232 233 231 232 233 232
164 168 171 169 170 173 177 182 183 183 182 181 179 179 175 169 168 169 168 164 165 167 170 171 175 180 183 186 192 201 203 207 216 223 228 237 238 238 236 235 237 239 236
163 166 170 175 178 178 179 182 183 183 179 176 178 178 177 175 175 174 170 168 168 170 171 174 181 185 187 191 197 201 206 212 218 222 229 237 238 245 244 242 243 246 253
168 172 178 182 182 182 182 182 185 180 175 174 177 181 181 179 176 171 169 170 169 172 176 180 183 186 189 193 198 202 210 219 227 229 232 236 236 242 244 248 248 249 255
179 182 184 185 183 183 184 182 183 178 173 175 179 181 175 171 170 169 168 167 170 176 176 179 185 189 193 199 200 203 210 221 233 238 238 240 244 248 251 254 247 244 251
190 185 183 183 184 183 182 178 179 175 169 174 178 170 167 167 168 168 166 169 175 176 178 186 190 196 205 208 209 207 212 220 229 241 245 249 253 258 264 266 267 263 260
187 182 182 184 184 179 175 175 172 163 165 171 170 167 167 169 171 169 171 178 181 180 188 195 196 205 212 213 218 220 219 224 232 240 247 258 258 264 257 266 271 271 270
178 174 172 172 169 160 157 155 151 153 160 164 165 166 166 168 168 170 179 184 184 188 195 201 204 208 216 218 224 228 227 231 238 241 245 252 256 256 261 254 255 253 258
155 154 151 151 148 148 147 141 145 148 155 164 166 166 165 167 172 181 186 187 187 196 199 199 204 212 220 221 227 229 226 235 243 246 249 254 256 267 272 269 263 265 263
123 124 121 121 132 139 135 137 146 151 163 166 164 161 163 169 178 184 186 187 190 199 199 208 211 214 221 225 228 230 226 239 249 251 251 259 265 272 276 270 265 271 271
123 120 116 118 128 128 127 136 141 155 155 147 148 155 161 168 173 176 179 181 190 196 205 217 223 222 225 231 233 237 233 238 250 255 255 257 272 275 277 277 270 272 278
121 119 117 113 112 121 127 133 142 140 129 133 143 152 156 161 163 168 180 183 186 199 214 224 235 234 232 236 245 249 252 256 255 259 259 263 276 279 281 281 279 282 287
126 120 119 114 106 111 124 133 135 125 125 131 141 145 146 151 158 168 181 187 190 202 219 225 237 247 242 246 254 257 261 264 264 265 271 277 281 284 283 282 284 286 281
128 125 122 121 120 114 113 122 121 120 125 135 141 141 144 153 163 172 180 190 202 212 223 231 241 250 250 247 249 251 262 267 271 274 276 280 282 280 277 280 283 273 264
130 128 131 134 134 126 116 116 120 124 130 136 137 138 147 161 181 196 205 209 216 217 228 233 232 241 254 255 260 264 259 255 260 276 272 268 271 268 266 266 263 257 261
131 131 132 133 132 124 119 117 118 123 129 135 141 148 158 177 193 216 266 256 256 258 254 256 258 260 265 274 274 274 277 280 282 284 275 273 271 272 273 271 268 259 256
Height
1476 1478 1480 1483 1486 1490 1493 1495 1498 1502 1506 1510 1513 1517 1520 1524 1527 1530 1532 1535 1537 1539 1541 1542 1543 1544 1545 1545 1545 1545 1544 1544 1543 1541 1539 1538 1537 1536 1535 1535 1534 1533 1532
1470 1472 1474 1477 1480 1484 1487 1490 1493 1497 1501 1504 1508 1512 1517 1520 1523 1526 1529 1531 1533 1535 1537 1539 1540 1541 1542 1542 1542 1542 1542 1542 1541 1540 1537 1536 1535 1534 1534 1533 1532 1531 1530
1465 1467 1469 1472 1475 1478 1481 1485 1488 1492 1496 1500 1505 1510 1513 1517 1519 1522 1525 1527 1530 1532 1534 1536 1537 1538 1539 1539 1540 1540 1539 1539 1539 1538 1538 1536 1534 1532 1531 1530 1529 1528 1527
1460 1462 1464 1466 1469 1473 1477 1480 1484 1488 1492 1496 1500 1503 1506 1509 1513 1517 1520 1524 1526 1529 1531 1532 1534 1535 1536 1536 1537 1537 1537 1536 1536 1535 1535 1535 1534 1532 1528 1526 1526 1525 1523
1456 1457 1459 1461 1465 1468 1472 1476 1480 1483 1487 1491 1495 1499 1502 1506 1510 1513 1516 1519 1522 1525 1527 1529 1530 1532 1533 1533 1534 1534 1534 1533 1533 1532 1532 1531 1530 1529 1528 1523 1521 1520 1519
1452 1454 1456 1458 1461 1464 1467 1472 1475 1479 1483 1487 1491 1495 1498 1502 1506 1508 1512 1515 1518 1520 1523 1525 1527 1528 1529 1530 1530 1530 1530 1530 1530 1529 1528 1528 1527 1525 1524 1521 1517 1514 1513
1449 1451 1452 1454 1456 1459 1463 1467 1471 1474 1478 1482 1486 1491 1494 1498 1501 1504 1507 1510 1513 1515 1518 1521 1523 1524 1525 1526 1526 1527 1527 1526 1526 1525 1525 1524 1523 1522 1520 1518 1514 1510 1507
1446 1448 1449 1451 1453 1456 1459 1463 1467 1470 1474 1478 1482 1486 1490 1494 1497 1500 1503 1506 1508 1511 1514 1517 1518 1520 1521 1522 1522 1522 1522 1522 1522 1521 1521 1520 1519 1518 1516 1514 1512 1507 1503
1444 1445 1447 1448 1450 1453 1456 1459 1463 1466 1470 1473 1478 1482 1486 1490 1493 1496 1499 1502 1504 1507 1510 1512 1514 1515 1517 1518 1518 1518 1518 1518 1517 1517 1516 1515 1514 1513 1511 1510 1508 1506 1500
1442 1443 1444 1446 1448 1450 1453 1457 1460 1463 1466 1470 1474 1478 1481 1485 1488 1492 1494 1497 1500 1503 1505 1507 1509 1511 1512 1513 1513 1513 1513 1513 1513 1512 1511 1510 1509 1508 1506 1505 1503 1501 1498
1439 1441 1442 1444 1446 1448 1450 1453 1456 1460 1462 1466 1470 1473 1477 1481 1484 1487 1489 1492 1495 1498 1500 1502 1504 1506 1507 1508 1508 1508 1508 1508 1508 1507 1506 1505 1504 1502 1501 1499 1497 1495 1492
1437 1438 1440 1442 1443 1445 1447 1450 1453 1456 1458 1462 1465 1469 1473 1476 1479 1482 1485 1488 1490 1493 1495 1497 1499 1500 1501 1502 1503 1503 1503 1503 1502 1501 1500 1499 1498 1496 1495 1493 1491 1489 1486
1434 1436 1438 1439 1440 1442 1444 1446 1449 1452 1455 1458 1461 1464 1467 1470 1473 1476 1479 1482 1485 1488 1490 1492 1494 1495 1496 1497 1497 1498 1497 1497 1496 1495 1494 1493 1492 1490 1488 1486 1484 1482 1480
1432 1433 1435 1436 1437 1439 1441 1443 1445 1448 1451 1453 1456 1459 1462 1465 1468 1471 1474 1477 1480 1482 1484 1486 1488 1490 1491 1491 1492 1492 1491 1491 1490 1489 1488 1487 1485 1483 1482 1479 1477 1475 1473
1428 1430 1431 1432 1434 1435 1437 1439 1441 1444 1446 1449 1451 1454 1458 1461 1464 1466 1469 1472 1474 1477 1479 1481 1482 1484 1485 1485 1485 1485 1485 1484 1483 1482 1481 1480 1479 1477 1475 1473 1470 1469 1466
1424 1426 1427 1429 1430 1431 1433 1435 1437 1439 1442 1444 1447 1450 1453 1456 1459 1461 1464 1467 1469 1471 1473 1475 1476 1477 1478 1479 1479 1479 1478 1477 1476 1475 1474 1473 1471 1470 1468 1466 1464 1462 1459
1420 1421 1423 1424 1426 1427 1429 1430 1433 1435 1438 1440 1443 1446 1448 1451 1453 1456 1459 1461 1463 1465 1467 1469 1470 1471 1472 1473 1473 1472 1471 1470 1469 1468 1467 1465 1464 1462 1460 1458 1456 1454 1452
1415 1417 1418 1420 1422 1423 1425 1427 1430 1432 1434 1436 1439 1441 1444 1446 1449 1451 1453 1456 1458 1459 1461 1462 1464 1465 1466 1466 1466 1465 1464 1463 1462 1461 1459 1457 1455 1454 1452 1449 1446 1444 1443
1411 1413 1414 1416 1418 1419 1421 1423 1425 1428 1430 1432 1434 1437 1439 1442 1444 1446 1448 1450 1452 1454 1455 1456 1457 1458 1459 1459 1459 1459 1457 1455 1454 1453 1452 1450 1448 1446 1445 1442 1438 1435 1433
1406 1408 1410 1412 1414 1416 1418 1420 1422 1424 1426 1428 1431 1433 1436 1438 1440 1442 1444 1445 1447 1448 1449 1450 1451 1452 1452 1453 1452 1452 1450 1447 1446 1444 1443 1442 1440 1438 1436 1434 1430 1426 1424
1403 1405 1407 1409 1411 1413 1415 1417 1419 1421 1423 1426 1428 1430 1432 1434 1436 1438 1439 1441 1442 1443 1444 1444 1445 1445 1446 1446 1445 1444 1443 1440 1438 1436 1434 1433 1432 1430 1428 1426 1423 1419 1417
1400 1402 1404 1406 1408 1410 1412 1414 1416 1419 1421 1423 1425 1427 1429 1430 1432 1433 1435 1436 1437 1437 1438 1438 1438 1438 1439 1439 1438 1437 1436 1434 1431 1428 1426 1424 1423 1421 1419 1417 1414 1412 1410
1397 1400 1402 1404 1406 1408 1410 1412 1414 1417 1418 1420 1422 1424 1425 1427 1428 1429 1430 1431 1431 1431 1432 1432 1431 1431 1431 1431 1430 1429 1428 1426 1424 1420 1418 1416 1414 1412 1409 1408 1406 1404 1401
1395 1398 1400 1402 1404 1406 1409 1411 1413 1414 1416 1417 1419 1420 1421 1423 1424 1425 1425 1426 1426 1426 1426 1426 1425 1424 1424 1423 1422 1421 1420 1418 1415 1413 1410 1408 1405 1403 1401 1399 1397 1395 1393
1393 1396 1398 1400 1402 1405 1407 1409 1410 1412 1413 1415 1416 1417 1418 1419 1420 1420 1421 1421 1421 1421 1421 1420 1419 1418 1416 1416 1415 1414 1411 1409 1407 1404 1401 1398 1396 1393 1392 1390 1388 1387 1385
1391 1394 1396 1398 1401 1403 1405 1406 1408 1409 1411 1412 1413 1414 1414 1415 1415 1415 1416 1416 1416 1416 1415 1414 1414 1411 1410 1409 1407 1406 1404 1401 1400 1397 1392 1390 1388 1386 1384 1382 1380 1379 1378